Hourly Data Report for October 24, 2016

All times are specified in Local Standard Time (LST). Add 1 hour to adjust for Daylight Saving Time where and when it is observed.

CLYDE RIVER A
NUNAVUT

70°29'09.000" N
68°31'01.000" W
26.50 m
2400804
71090
YCY

Download Data

Hourly Data (October 2016)
Hourly Data Report for October 24, 2016
Temp Definition
°C
Dew Point Temp Definition
°C
Rel Hum Definition
%
Wind Dir Definition
10's deg

Wind Spd Definition
km/h
Visibility Definition
km
Stn Press Definition
kPa
Hmdx Definition


Wind Chill Definition


Weather Definition


TIME
00:00 Legend Double Dagger -7.6 -10.3 81 30 32 16.1 102.45   -17 Snow
01:00 Legend Double Dagger -8.9 -12.2 77 29 30 16.1 102.42   -18 LegendNANA
02:00 Legend Double Dagger -7.8 -10.4 82 31 28 16.1 102.39   -16 LegendNANA
03:00 Legend Double Dagger -8.0 -10.6 82 30 28 16.1 102.35   -17 LegendNANA
04:00 Legend Double Dagger -9.6 -12.3 81 29 28 16.1 102.29   -19 LegendNANA
05:00 Legend Double Dagger -9.3 -12.3 79 29 30 16.1 102.26   -19 LegendNANA
06:00 Legend Double Dagger -9.2 -12.2 79 29 30 16.1 102.20   -18 LegendNANA
07:00 Legend Double Dagger -8.4 -11.6 78 30 34 16.1 102.16   -18 LegendNANA
08:00 Legend Double Dagger -7.6 -10.5 80 29 32 16.1 102.12   -17 Snow
09:00 Legend Double Dagger -8.5 -10.7 84 29 26 16.1 102.08   -17 LegendNANA
10:00 Legend Double Dagger -6.8 -9.3 82 31 41 16.1 101.98   -17 Snow
11:00 Legend Double Dagger -6.7 -9.3 82 30 41 8.1 101.89   -16 Snow
12:00 Legend Double Dagger -7.3 -9.4 85 30 39 16.1 101.85   -17 LegendNANA
13:00 Legend Double Dagger -7.2 -9.8 82 29 39 16.1 101.80   -17 LegendNANA
14:00 Legend Double Dagger -6.8 -9.6 81 32 41 16.1 101.77   -17 Snow
15:00 Legend Double Dagger -8.4 -10.8 83 31 28 16.1 101.73   -17 LegendNANA
16:00 Legend Double Dagger -7.9 -10.9 79 31 34 16.1 101.69   -17 LegendNANA
17:00 Legend Double Dagger -7.0 -9.0 86 31 46 11.3 101.62   -17 Snow
18:00 Legend Double Dagger -7.2 -9.4 84 31 45 9.7 101.58   -18 Fog
19:00 Legend Double Dagger -6.7 -8.9 84 32 45 16.1 101.59   -17 Snow
20:00 Legend Double Dagger -6.6 -8.3 88 32 43 16.1 101.53   -17 Snow
21:00 Legend Double Dagger -6.6 -8.0 90 31 43 6.4 101.48   -17 Snow
22:00 Legend Double Dagger -6.7 -8.4 88 32 39 14.5 101.44   -16 Snow
23:00 Legend Double Dagger -6.4 -8.3 87 32 39 16.1 101.39   -16 Snow

Notes on Data Quality.

Legend

  • E = Estimated
  • M = Missing
  • NA = Not Available
  • ‡ = Partner data that is not subject to review by the National Climate Archives
Date modified: